Wind_Speed
34 33 32 32 32 33 31 29 28 28 29 28 28 28 28 27 27 27 24 22 21 21 20 20 19 19 19 19 19 19 18 18 18 18 17 17 16 16 16 15 14 13 12 12 12 12 12 12 12
36 35 35 34 34 32 31 30 30 29 30 29 29 29 29 29 29 28 26 25 24 23 23 23 22 22 22 21 21 21 21 20 20 20 20 19 19 18 17 17 16 16 15 14 14 13 13 13 13
38 38 37 36 35 32 30 30 30 31 31 31 31 31 30 30 30 29 28 27 26 26 26 26 25 25 24 24 23 23 23 23 23 22 22 22 21 20 20 19 19 18 17 17 16 16 15 15 14
40 39 39 38 36 34 32 32 32 32 33 33 32 32 31 31 31 31 30 29 29 29 28 28 28 28 27 27 26 25 25 25 25 25 24 24 23 23 22 22 21 21 20 19 18 18 18 17 17
41 40 40 39 37 35 34 34 34 34 33 33 33 33 33 32 33 32 32 32 31 31 31 31 31 30 30 29 29 28 28 27 27 26 26 26 26 25 24 24 24 23 22 22 21 20 20 19 18
41 41 41 39 37 36 36 36 36 35 35 35 35 35 34 34 35 35 34 34 34 34 34 33 33 33 33 32 31 31 30 30 29 29 28 28 28 27 27 26 26 25 25 25 24 23 23 22 21
42 42 41 39 38 37 37 37 37 36 37 37 36 36 36 37 37 37 37 36 36 36 36 36 36 36 35 35 34 34 33 33 32 31 31 30 30 29 29 29 28 27 26 27 27 26 25 24 24
42 42 41 40 39 38 38 38 38 38 38 38 38 37 37 38 38 39 39 39 38 38 39 39 38 38 38 38 38 37 36 36 35 35 34 33 33 32 32 31 30 29 29 28 29 28 27 26 25
41 41 41 40 39 39 39 39 39 39 39 39 39 39 38 39 39 40 40 40 40 41 41 41 41 41 41 41 40 40 39 39 39 38 37 37 36 35 34 33 32 32 31 31 30 30 30 29 27
41 41 40 40 40 40 40 40 39 39 39 40 40 40 40 40 40 41 41 42 42 42 43 43 43 43 43 43 43 43 43 42 42 41 41 40 39 38 37 36 35 34 34 34 32 31 31 30 30
41 41 40 40 40 39 39 39 40 40 40 40 40 40 41 41 41 41 42 42 43 43 43 44 44 44 44 45 45 45 45 45 45 45 44 43 42 41 40 39 38 37 37 36 35 34 33 32 32
40 40 40 39 39 39 39 39 39 39 40 40 40 40 41 41 41 41 41 41 42 42 43 44 44 45 46 46 46 46 46 46 46 46 46 46 45 44 43 42 41 40 39 38 38 36 35 34 33
38 37 38 38 38 38 38 39 39 39 39 40 40 40 40 40 40 40 40 40 41 42 43 45 46 46 47 47 47 47 48 48 48 47 47 48 47 47 46 45 44 43 42 41 40 38 37 37 36
35 36 36 36 36 36 37 37 38 38 39 39 39 39 39 39 39 40 41 41 42 42 43 45 45 46 47 48 49 49 49 49 50 50 51 50 49 48 48 47 46 45 45 44 43 41 40 39 38
34 35 35 35 35 35 36 37 37 37 38 38 38 38 38 39 40 40 41 41 42 42 43 44 45 46 47 47 48 50 50 50 51 51 51 51 51 51 50 49 49 48 47 46 45 44 43 42 41
31 33 34 34 34 34 35 35 36 36 37 37 37 37 38 39 39 40 40 41 42 42 42 42 44 45 46 46 47 49 50 51 51 52 52 53 53 53 52 52 52 51 50 48 47 46 45 44 44
29 30 31 32 33 33 33 34 34 35 35 35 36 36 37 37 38 39 40 40 40 41 41 41 42 42 43 44 45 46 48 49 50 51 52 53 54 55 54 54 53 53 52 51 50 49 48 47 46
27 28 29 30 30 31 31 31 32 33 34 34 34 35 35 35 36 37 38 39 39 39 40 40 41 42 43 43 44 45 45 46 47 49 50 52 53 54 55 55 55 55 54 53 52 51 50 49 48
25 26 27 29 29 29 29 29 30 31 32 32 32 33 33 34 35 35 36 37 37 38 39 40 41 42 43 44 44 44 45 46 47 48 49 50 52 53 53 53 54 55 55 55 53 53 53 51 50
23 24 25 27 27 27 27 28 28 28 29 30 31 32 32 32 32 33 34 35 36 36 36 37 39 41 42 43 43 44 45 46 46 47 48 49 51 52 53 53 54 54 55 55 54 54 53 52 51
20 21 22 22 23 24 25 26 26 26 27 28 29 29 30 31 31 32 33 34 35 35 36 36 37 39 40 41 42 42 43 44 45 46 47 49 50 51 53 54 54 53 53 53 54 53 52 52 52
17 17 18 19 20 21 22 23 23 24 25 25 26 27 28 28 30 30 31 32 32 33 33 34 35 35 37 38 39 41 41 42 43 44 45 46 48 49 51 52 53 54 53 53 52 52 53 54 54
14 15 16 17 18 19 19 20 20 20 22 22 24 25 25 26 27 28 28 29 29 29 30 31 32 33 33 35 36 38 39 40 41 42 43 44 45 47 48 49 50 52 52 52 52 52 52 53 54
12 13 14 15 16 16 16 17 17 17 18 19 21 21 22 23 24 26 26 27 28 29 30 30 31 31 32 33 34 35 37 39 40 41 42 43 43 43 45 47 48 49 50 50 51 52 52 51 51
10 10 11 12 14 14 14 15 14 14 15 16 18 19 19 21 22 23 24 26 26 26 26 27 28 29 30 31 32 33 34 36 37 39 40 40 41 42 42 43 45 47 48 49 50 51 51 51 51
8 8 9 11 12 12 13 13 12 13 14 14 15 16 18 18 19 21 22 23 23 24 24 25 26 27 27 28 28 29 30 31 32 35 37 37 38 38 39 40 42 44 46 47 48 49 50 50 51
7 7 8 9 10 11 11 11 11 11 11 12 13 14 15 16 17 18 18 18 19 20 21 22 22 23 23 24 25 26 27 29 30 31 33 34 35 35 36 37 39 41 44 46 46 46 47 48 50
5 6 7 8 9 10 10 10 10 11 12 13 14 14 15 16 17 16 16 16 16 16 17 18 19 20 21 22 22 22 24 26 28 28 28 29 31 32 32 33 36 38 40 43 45 46 47 47 48
5 6 7 8 9 9 9 9 10 10 11 12 13 13 14 14 14 15 14 14 13 14 15 16 17 18 18 19 19 19 21 21 22 24 25 26 27 29 30 31 32 34 36 39 41 43 45 47 48
5 6 7 8 8 9 9 8 10 10 11 11 12 12 12 12 12 12 13 12 13 13 14 15 15 15 16 16 17 17 17 17 18 20 22 24 26 27 29 30 30 31 33 36 38 40 44 46 46
Wind_Direction
239 239 239 239 239 239 240 241 241 240 240 240 241 242 243 245 246 248 247 246 246 247 247 249 249 250 250 252 253 253 254 255 257 258 259 260 261 263 265 267 269 271 273 274 275 274 274 273 270
239 239 239 239 240 241 241 241 241 241 242 241 241 242 243 244 246 247 248 246 247 248 249 249 249 250 251 253 253 254 254 255 257 258 258 258 260 261 263 264 265 267 268 270 271 273 274 274 272
239 239 239 239 240 240 240 240 241 241 241 242 242 242 243 244 246 247 248 248 247 249 250 250 251 251 252 254 255 255 255 256 256 257 258 258 259 260 261 262 262 263 266 268 269 270 272 274 274
239 238 238 239 239 239 240 239 240 242 242 243 244 244 244 245 246 248 249 249 249 249 251 252 252 253 254 255 255 256 256 257 257 257 257 257 258 259 260 260 261 261 263 265 266 267 269 271 272
238 238 238 239 240 239 240 241 241 242 243 244 244 245 246 246 247 248 249 250 251 251 252 252 254 255 255 255 255 256 256 257 258 257 256 256 257 258 259 259 260 260 260 261 264 265 266 268 268
237 237 238 239 240 240 241 242 243 243 244 245 245 246 247 247 248 249 249 250 252 253 254 254 254 255 256 256 257 257 257 257 258 258 257 257 257 257 258 259 259 260 260 260 262 264 265 265 266
237 237 238 239 239 240 241 243 244 244 245 246 246 247 247 248 249 249 250 251 252 253 254 255 255 256 257 257 258 258 258 258 258 257 257 257 257 257 258 258 258 259 261 261 260 261 263 264 264
236 237 238 238 239 240 241 243 244 245 246 246 247 248 248 248 249 250 251 251 252 254 254 255 256 257 257 257 258 258 258 258 258 258 257 257 256 257 257 257 258 258 260 260 260 260 260 261 262
235 236 238 239 240 241 242 243 244 245 247 247 248 249 249 249 250 251 252 253 253 254 254 255 256 257 257 257 258 258 258 258 257 257 257 257 257 257 257 257 258 258 258 259 260 259 259 259 260
234 236 238 238 239 241 242 244 245 246 247 248 249 250 250 250 251 252 253 254 255 255 255 256 256 257 256 256 257 257 257 257 257 257 256 256 256 257 257 257 258 258 258 259 259 260 259 259 259
233 235 236 237 238 241 243 244 246 247 249 250 251 252 252 253 253 253 253 254 255 256 256 257 257 257 257 256 256 257 257 258 257 256 256 256 256 256 256 257 257 257 258 258 258 259 259 259 259
232 233 235 237 238 239 242 244 246 247 249 250 251 252 253 253 253 254 253 254 255 256 256 257 258 258 258 258 257 256 256 256 257 256 255 255 255 255 256 256 257 257 257 257 257 257 258 258 260
229 230 233 236 238 239 241 244 246 249 250 251 253 253 253 253 253 254 254 254 255 257 257 258 258 258 258 258 257 256 256 255 255 255 256 255 255 255 255 255 255 256 256 256 255 256 257 258 258
228 230 232 234 237 239 241 244 246 249 250 252 253 254 254 254 254 255 256 257 257 258 259 260 260 260 259 258 257 257 256 256 256 255 255 255 255 255 254 254 254 255 255 254 254 255 255 256 257
227 229 231 233 236 239 242 244 246 249 251 252 253 253 254 255 256 257 258 259 259 260 260 260 261 261 260 259 258 256 256 256 256 255 255 255 255 254 254 253 253 254 254 253 253 254 254 255 256
226 229 231 234 237 239 241 244 247 248 250 252 254 255 256 258 259 259 259 260 261 261 261 261 262 262 261 259 259 258 257 257 256 255 255 255 255 254 254 253 253 253 253 252 253 253 253 255 255
226 229 232 235 237 239 241 243 246 248 250 252 254 256 257 259 260 260 261 262 263 262 262 262 262 262 262 262 261 260 259 257 257 256 255 255 254 254 254 253 253 252 251 251 252 253 253 254 255
228 231 234 236 238 241 242 244 246 249 251 253 255 256 257 259 260 261 262 263 262 262 263 264 264 263 262 263 262 262 260 258 257 256 255 254 253 253 252 252 253 252 250 250 251 252 252 254 255
230 232 234 236 238 241 243 245 248 251 253 254 255 255 257 259 260 261 262 262 262 263 264 266 265 264 264 263 263 263 261 259 258 256 255 254 253 252 251 252 252 251 250 250 250 251 251 252 253
231 233 235 237 239 241 243 246 250 253 255 255 256 257 259 261 262 263 264 263 264 265 266 266 265 265 264 263 262 263 262 260 258 257 256 255 254 252 251 251 251 250 249 248 249 250 251 251 253
232 236 238 239 239 242 245 248 252 255 256 256 258 258 259 261 262 264 264 264 265 266 267 267 267 266 265 263 263 262 261 260 258 257 257 256 254 252 251 250 249 249 249 248 249 249 250 251 252
232 234 235 236 240 244 247 250 251 255 256 257 258 258 260 263 264 265 265 266 269 269 269 269 270 269 267 265 264 262 261 260 257 257 257 256 255 253 251 249 249 249 248 247 247 248 250 251 251
232 234 235 237 242 246 248 251 250 254 258 259 259 259 261 264 266 267 267 268 270 271 271 271 272 271 269 267 265 264 261 259 258 258 257 256 256 255 253 251 249 247 247 247 247 248 250 251 252
229 234 236 240 245 247 249 251 252 255 259 259 259 261 264 267 270 271 271 271 272 272 272 273 272 272 271 269 268 266 263 261 259 258 258 257 256 255 253 251 249 248 247 247 247 248 250 251 252
224 229 235 241 243 247 250 253 256 258 259 262 263 267 270 273 276 277 276 274 273 273 273 275 274 273 272 271 270 269 266 263 262 259 258 257 256 255 253 252 251 249 247 247 247 247 250 252 252
215 229 240 247 250 250 253 257 260 261 262 265 269 273 274 277 280 282 282 279 275 274 275 276 277 277 276 274 270 269 267 265 264 261 259 257 256 254 253 253 251 250 249 248 248 249 250 251 252
223 236 246 252 252 257 261 263 264 263 266 268 271 275 278 281 285 286 285 283 282 281 280 279 280 281 281 279 274 272 267 265 264 262 260 258 256 256 256 255 255 253 251 249 248 249 250 251 251
242 247 252 255 261 268 268 269 269 266 268 268 270 276 281 286 287 287 287 285 285 287 287 285 287 286 284 284 279 275 270 266 263 263 262 259 257 257 258 258 257 254 252 251 250 250 251 252 253
262 258 262 265 272 279 278 276 275 272 273 274 278 282 286 290 289 290 291 290 289 290 293 294 294 293 293 291 285 279 275 271 266 264 263 261 259 258 260 261 258 256 254 252 251 253 253 254 253
268 266 268 272 278 284 287 285 280 281 280 282 284 286 291 295 294 294 293 292 291 291 294 297 300 299 298 296 290 286 282 276 271 269 267 265 263 263 263 263 261 259 257 254 253 253 254 256 254
Height
5817 5820 5823 5826 5829 5831 5834 5838 5840 5842 5844 5846 5848 5850 5852 5854 5856 5859 5860 5861 5863 5864 5865 5866 5867 5868 5869 5870 5871 5872 5873 5874 5875 5876 5876 5877 5878 5879 5879 5880 5880 5880 5881 5881 5881 5881 5881 5881 5881
5811 5814 5817 5820 5822 5825 5830 5833 5835 5837 5839 5841 5843 5845 5847 5849 5851 5853 5855 5857 5858 5860 5861 5862 5863 5864 5865 5866 5868 5869 5870 5871 5872 5872 5873 5874 5875 5876 5877 5877 5878 5878 5878 5879 5879 5879 5879 5879 5879
5804 5807 5810 5813 5816 5821 5824 5827 5829 5831 5833 5835 5838 5840 5842 5844 5846 5848 5850 5852 5854 5855 5856 5858 5859 5860 5861 5863 5864 5865 5866 5867 5868 5869 5870 5871 5872 5873 5873 5874 5875 5875 5876 5876 5876 5876 5877 5877 5877
5796 5799 5803 5807 5810 5815 5818 5820 5822 5824 5827 5829 5832 5835 5837 5839 5841 5843 5845 5847 5849 5850 5851 5853 5854 5855 5857 5858 5860 5861 5862 5863 5864 5865 5866 5867 5868 5869 5870 5871 5871 5872 5873 5873 5873 5874 5874 5874 5874
5787 5791 5795 5799 5804 5808 5811 5813 5816 5818 5821 5824 5826 5829 5831 5834 5835 5837 5839 5841 5843 5845 5846 5848 5849 5850 5852 5853 5855 5856 5857 5858 5859 5861 5862 5863 5863 5864 5865 5866 5867 5868 5869 5869 5870 5870 5871 5871 5871
5780 5783 5788 5793 5798 5801 5804 5806 5809 5812 5815 5817 5820 5823 5825 5827 5829 5831 5833 5835 5837 5838 5840 5842 5843 5845 5846 5848 5849 5850 5852 5853 5854 5856 5857 5858 5859 5860 5861 5862 5863 5864 5864 5865 5866 5866 5867 5867 5868
5772 5776 5781 5786 5790 5794 5797 5799 5802 5805 5808 5811 5814 5816 5819 5821 5823 5825 5826 5828 5830 5832 5833 5835 5837 5838 5840 5841 5843 5844 5846 5847 5848 5850 5851 5852 5853 5855 5856 5857 5858 5859 5860 5860 5861 5862 5862 5863 5863
5763 5769 5773 5778 5783 5786 5789 5792 5795 5798 5801 5803 5806 5809 5812 5814 5815 5817 5819 5821 5823 5825 5826 5828 5829 5831 5833 5834 5836 5837 5839 5840 5842 5843 5845 5846 5847 5849 5850 5851 5852 5853 5854 5855 5856 5856 5857 5858 5858
5755 5761 5766 5771 5775 5779 5782 5784 5787 5790 5793 5796 5799 5802 5804 5806 5808 5810 5812 5814 5815 5817 5818 5820 5822 5823 5825 5826 5828 5829 5831 5833 5834 5836 5838 5839 5841 5842 5844 5845 5846 5848 5849 5849 5850 5851 5852 5852 5853
5748 5753 5759 5764 5768 5771 5774 5777 5780 5783 5786 5789 5791 5794 5796 5798 5800 5802 5804 5805 5807 5808 5810 5812 5813 5814 5816 5818 5819 5821 5822 5824 5826 5828 5830 5831 5833 5835 5837 5838 5840 5841 5842 5843 5844 5845 5846 5847 5848
5740 5746 5751 5755 5759 5763 5766 5770 5773 5776 5779 5781 5783 5786 5788 5790 5792 5794 5795 5796 5798 5799 5801 5802 5804 5805 5807 5808 5810 5812 5813 5815 5817 5819 5821 5823 5825 5827 5829 5831 5832 5834 5835 5836 5838 5839 5840 5841 5841
5733 5738 5743 5747 5751 5755 5759 5762 5765 5768 5771 5773 5775 5777 5779 5781 5783 5784 5786 5788 5789 5790 5792 5793 5794 5795 5797 5798 5800 5802 5804 5805 5807 5809 5811 5813 5815 5818 5820 5822 5824 5826 5827 5829 5830 5832 5833 5834 5835
5726 5731 5736 5740 5744 5748 5751 5755 5758 5760 5763 5765 5767 5769 5771 5773 5774 5775 5777 5779 5780 5781 5782 5783 5784 5785 5786 5788 5789 5791 5793 5795 5797 5799 5801 5803 5806 5808 5810 5813 5815 5817 5819 5820 5822 5824 5826 5827 5828
5721 5725 5729 5733 5737 5741 5744 5747 5750 5753 5755 5757 5759 5761 5763 5764 5765 5767 5768 5770 5771 5772 5772 5773 5774 5775 5776 5777 5778 5780 5782 5784 5786 5788 5790 5792 5795 5798 5800 5803 5805 5807 5810 5811 5813 5816 5817 5819 5820
5715 5719 5723 5727 5730 5734 5738 5740 5743 5745 5747 5749 5751 5753 5754 5756 5757 5758 5759 5760 5761 5762 5762 5763 5763 5764 5764 5765 5767 5768 5770 5772 5774 5777 5779 5781 5783 5786 5789 5792 5795 5797 5799 5801 5804 5806 5808 5810 5811
5710 5714 5718 5721 5724 5727 5732 5734 5736 5738 5740 5742 5743 5745 5746 5747 5748 5749 5750 5750 5751 5752 5752 5752 5753 5753 5753 5754 5755 5757 5758 5761 5762 5765 5767 5769 5772 5774 5777 5780 5783 5786 5788 5791 5794 5797 5799 5801 5803
5705 5709 5712 5716 5719 5721 5724 5727 5729 5730 5733 5734 5736 5737 5738 5739 5739 5740 5740 5741 5741 5742 5742 5742 5743 5743 5743 5744 5744 5745 5746 5748 5750 5752 5754 5757 5759 5762 5765 5768 5771 5774 5777 5780 5783 5786 5789 5791 5793
5702 5705 5708 5711 5714 5716 5718 5721 5723 5724 5726 5727 5728 5729 5730 5731 5731 5731 5732 5732 5732 5732 5732 5733 5733 5733 5733 5733 5734 5734 5735 5736 5738 5739 5742 5744 5746 5749 5752 5755 5759 5762 5765 5769 5772 5775 5778 5780 5783
5698 5701 5704 5707 5708 5711 5713 5715 5717 5718 5719 5720 5721 5722 5723 5723 5723 5723 5723 5723 5723 5723 5723 5723 5722 5722 5722 5722 5722 5723 5724 5725 5726 5727 5729 5731 5733 5736 5739 5743 5746 5749 5753 5756 5760 5763 5766 5769 5771
5694 5697 5700 5702 5704 5706 5707 5709 5710 5711 5713 5713 5714 5715 5715 5715 5715 5715 5715 5714 5714 5713 5713 5712 5711 5711 5711 5711 5711 5711 5712 5712 5714 5715 5717 5719 5721 5723 5726 5730 5733 5737 5740 5744 5747 5750 5753 5756 5759
5691 5694 5696 5698 5699 5700 5702 5704 5705 5705 5706 5706 5707 5707 5708 5708 5707 5707 5706 5706 5705 5704 5703 5702 5701 5700 5699 5699 5699 5699 5700 5700 5701 5702 5704 5706 5708 5710 5714 5717 5721 5724 5728 5731 5735 5738 5741 5745 5747
5688 5690 5692 5694 5695 5696 5698 5699 5700 5700 5700 5700 5701 5701 5701 5700 5699 5698 5698 5697 5696 5694 5693 5692 5691 5689 5688 5688 5687 5687 5688 5689 5689 5691 5692 5693 5695 5698 5701 5704 5707 5711 5715 5719 5722 5726 5729 5732 5735
5686 5687 5689 5690 5691 5692 5693 5693 5695 5694 5694 5695 5695 5694 5694 5693 5692 5691 5690 5689 5688 5686 5685 5683 5682 5680 5679 5677 5676 5676 5676 5677 5678 5679 5681 5682 5684 5686 5688 5691 5694 5698 5702 5706 5710 5713 5716 5718 5721
5683 5685 5686 5686 5687 5689 5689 5689 5690 5690 5689 5689 5689 5688 5687 5687 5685 5684 5682 5681 5680 5679 5677 5675 5674 5672 5670 5668 5667 5666 5666 5666 5667 5668 5669 5671 5672 5674 5676 5678 5681 5685 5689 5693 5697 5700 5702 5705 5707
5681 5683 5684 5684 5684 5685 5685 5684 5686 5685 5684 5684 5683 5682 5681 5680 5679 5677 5675 5674 5672 5671 5669 5667 5665 5663 5661 5660 5658 5657 5656 5656 5657 5658 5659 5660 5661 5663 5665 5667 5669 5673 5676 5680 5683 5686 5690 5692 5694
5679 5680 5682 5682 5681 5681 5681 5680 5682 5680 5679 5678 5678 5677 5676 5674 5673 5671 5668 5666 5665 5663 5661 5660 5658 5656 5653 5652 5650 5648 5648 5647 5647 5648 5649 5650 5651 5653 5654 5656 5658 5661 5664 5667 5670 5673 5677 5679 5681
5678 5678 5679 5679 5678 5678 5677 5677 5677 5676 5675 5674 5673 5672 5671 5669 5667 5665 5662 5660 5658 5656 5654 5653 5651 5649 5647 5644 5642 5641 5640 5639 5639 5639 5639 5640 5641 5643 5644 5645 5647 5649 5652 5655 5658 5661 5664 5666 5668
5677 5676 5676 5676 5675 5675 5674 5674 5673 5672 5671 5670 5669 5668 5666 5664 5662 5659 5657 5655 5653 5651 5649 5647 5645 5643 5640 5638 5635 5633 5632 5631 5631 5630 5630 5631 5632 5633 5634 5635 5636 5637 5640 5643 5646 5649 5651 5653 5656
5675 5675 5674 5673 5673 5672 5671 5673 5670 5668 5667 5666 5665 5663 5661 5659 5657 5654 5652 5650 5649 5647 5645 5643 5640 5638 5635 5632 5630 5627 5625 5624 5623 5623 5623 5623 5623 5624 5625 5625 5626 5627 5629 5631 5634 5636 5639 5641 5643
5673 5672 5672 5672 5671 5669 5668 5671 5666 5665 5663 5662 5661 5659 5657 5655 5653 5651 5649 5647 5645 5643 5641 5639 5636 5633 5631 5627 5624 5622 5620 5618 5617 5616 5616 5616 5616 5616 5616 5616 5617 5618 5619 5621 5623 5625 5627 5629 5631